When you browse on this site, cookies collect data to enhance your experience and personalize the content and advertising you see.
Visit our Privacy Policy to learn more. By continuing to use the site, you agree to this use of cookies and data.
  • In Netherlands
  • List of Countries
  • For 7 days
  • Water Temperature
  • Weather Map
  • Weather Widgets
  • user-avatar
    Login

    Hourly Weather Ayacimahi

    Today, 19 October, Saturday

    Time Temperature Precipitation Wind Pressure Humidity
    00:00 +8°C° 0 mm 1 mps 596 mmHg 52%
    01:00 +8°C° 0 mm 1 mps 596 mmHg 53%
    02:00 +8°C° 0 mm 1 mps 595 mmHg 53%
    03:00 +8°C° 0 mm 1 mps 595 mmHg 53%
    04:00 +8°C° 0 mm 1 mps 595 mmHg 52%
    05:00 +8°C° 0 mm 1 mps 595 mmHg 51%
    06:00 +6°C° 0 mm 2 mps 596 mmHg 50%
    07:00 +9°C° 0 mm 1 mps 597 mmHg 46%
    08:00 +11°C° 0 mm 1 mps 598 mmHg 42%
    09:00 +13°C° 0 mm 1 mps 599 mmHg 38%
    10:00 +14°C° 0 mm 1 mps 599 mmHg 39%
    11:00 +14°C° 0 mm 2 mps 599 mmHg 40%
    12:00 +15°C° 0 mm 2 mps 599 mmHg 42%
    13:00 +14°C° 0.2 mm 2 mps 599 mmHg 47%
    14:00 +13°C° 0.2 mm 2 mps 598 mmHg 53%
    15:00 +13°C° 0.2 mm 1 mps 598 mmHg 58%
    16:00 +12°C° 0.2 mm 1 mps 598 mmHg 64%
    17:00 +10°C° 0.2 mm 1 mps 597 mmHg 71%
    18:00 +8°C° 0.2 mm 0 mps 597 mmHg 77%
    19:00 +8°C° 0 mm 0 mps 597 mmHg 77%
    20:00 +7°C° 0 mm 0 mps 597 mmHg 77%
    21:00 +8°C° 0 mm 1 mps 597 mmHg 76%
    22:00 +8°C° 0 mm 1 mps 597 mmHg 75%
    23:00 +7°C° 0 mm 1 mps 597 mmHg 74%

    Tomorrow, 20 October, Sunday

    Time Temperature Precipitation Wind Pressure Humidity
    00:00 +7°C° 0 mm 1 mps 597 mmHg 73%
    01:00 +7°C° 0 mm 1 mps 597 mmHg 73%
    02:00 +7°C° 0 mm 1 mps 597 mmHg 72%
    03:00 +7°C° 0 mm 1 mps 597 mmHg 72%
    04:00 +6°C° 0 mm 1 mps 597 mmHg 72%
    05:00 +6°C° 0 mm 1 mps 597 mmHg 72%
    06:00 +6°C° 0 mm 1 mps 597 mmHg 72%
    07:00 +8°C° 0 mm 1 mps 598 mmHg 67%
    08:00 +10°C° 0 mm 1 mps 599 mmHg 62%
    09:00 +11°C° 0 mm 1 mps 600 mmHg 57%
    10:00 +12°C° 0 mm 2 mps 600 mmHg 57%
    11:00 +12°C° 0 mm 2 mps 600 mmHg 58%
    12:00 +12°C° 0 mm 3 mps 600 mmHg 59%
    13:00 +12°C° 0.4 mm 2 mps 600 mmHg 64%
    14:00 +12°C° 0.4 mm 2 mps 599 mmHg 69%
    15:00 +10°C° 0.4 mm 2 mps 599 mmHg 74%
    16:00 +10°C° 0.3 mm 1 mps 599 mmHg 80%
    17:00 +8°C° 0.3 mm 1 mps 598 mmHg 87%
    18:00 +6°C° 0.3 mm 0 mps 598 mmHg 93%
    19:00 +6°C° 0 mm 0 mps 598 mmHg 92%
    20:00 +6°C° 0 mm 0 mps 598 mmHg 91%
    21:00 +5°C° 0 mm 0 mps 598 mmHg 89%
    22:00 +5°C° 0 mm 0 mps 598 mmHg 88%
    23:00 +5°C° 0 mm 0 mps 598 mmHg 87%

    Day after tomorrow, 21 October, Monday

    Time Temperature Precipitation Wind Pressure Humidity
    00:00 +5°C° 0 mm 0 mps 598 mmHg 86%
    01:00 +5°C° 0 mm 0 mps 597 mmHg 85%
    02:00 +5°C° 0 mm 1 mps 597 mmHg 84%
    03:00 +5°C° 0 mm 1 mps 597 mmHg 83%
    04:00 +5°C° 0 mm 1 mps 597 mmHg 82%
    05:00 +5°C° 0 mm 1 mps 597 mmHg 81%
    06:00 +5°C° 0 mm 1 mps 597 mmHg 80%
    07:00 +7°C° 0 mm 1 mps 598 mmHg 74%
    08:00 +8°C° 0 mm 1 mps 599 mmHg 69%
    09:00 +10°C° 0 mm 1 mps 600 mmHg 63%
    10:00 +10°C° 0 mm 2 mps 600 mmHg 64%
    11:00 +10°C° 0 mm 2 mps 600 mmHg 64%
    12:00 +12°C° 0 mm 2 mps 600 mmHg 64%
    13:00 +10°C° 0.1 mm 2 mps 600 mmHg 68%
    14:00 +9°C° 0.1 mm 2 mps 599 mmHg 73%
    15:00 +9°C° 0.1 mm 2 mps 599 mmHg 78%
    16:00 +9°C° 0 mm 1 mps 599 mmHg 83%
    17:00 +7°C° 0 mm 1 mps 598 mmHg 88%
    18:00 +5°C° 0 mm 0 mps 598 mmHg 94%
    19:00 +5°C° 0 mm 0 mps 598 mmHg 92%
    20:00 +5°C° 0 mm 0 mps 597 mmHg 90%
    21:00 +5°C° 0 mm 0 mps 597 mmHg 89%
    22:00 +5°C° 0 mm 0 mps 597 mmHg 88%
    23:00 +4°C° 0 mm 0 mps 597 mmHg 87%

    22 October, Tuesday

    Time Temperature Precipitation Wind Pressure Humidity
    00:00 +5°C° 0 mm 1 mps 597 mmHg 86%
    01:00 +5°C° 0 mm 1 mps 597 mmHg 84%
    02:00 +5°C° 0 mm 1 mps 596 mmHg 82%
    03:00 +5°C° 0 mm 1 mps 596 mmHg 80%
    04:00 +5°C° 0 mm 1 mps 596 mmHg 78%
    05:00 +5°C° 0 mm 1 mps 596 mmHg 76%
    06:00 +4°C° 0 mm 1 mps 596 mmHg 74%
    07:00 +6°C° 0 mm 1 mps 597 mmHg 69%
    08:00 +8°C° 0 mm 1 mps 598 mmHg 65%
    09:00 +10°C° 0 mm 1 mps 599 mmHg 60%
    10:00 +9°C° 0 mm 2 mps 599 mmHg 60%
    11:00 +10°C° 0 mm 2 mps 600 mmHg 60%
    12:00 +12°C° 0 mm 2 mps 600 mmHg 61%
    13:00 +10°C° 0 mm 2 mps 599 mmHg 65%
    14:00 +10°C° 0 mm 2 mps 599 mmHg 70%
    15:00 +9°C° 0 mm 2 mps 599 mmHg 74%
    16:00 +9°C° 0 mm 1 mps 598 mmHg 81%
    17:00 +8°C° 0 mm 1 mps 598 mmHg 87%
    18:00 +5°C° 0 mm 0 mps 597 mmHg 93%
    19:00 +5°C° 0 mm 0 mps 597 mmHg 92%
    20:00 +5°C° 0 mm 0 mps 597 mmHg 90%
    21:00 +5°C° 0 mm 0 mps 597 mmHg 88%
    22:00 +6°C° 0 mm 1 mps 597 mmHg 86%
    23:00 +5°C° 0 mm 1 mps 597 mmHg 84%

    23 October, Wednesday

    Time Temperature Precipitation Wind Pressure Humidity
    00:00 +5°C° 0 mm 1 mps 597 mmHg 82%
    01:00 +5°C° 0 mm 1 mps 597 mmHg 77%
    02:00 +5°C° 0 mm 1 mps 597 mmHg 73%
    03:00 +5°C° 0 mm 1 mps 596 mmHg 69%
    04:00 +5°C° 0 mm 1 mps 596 mmHg 64%
    05:00 +5°C° 0 mm 1 mps 596 mmHg 59%
    06:00 +5°C° 0 mm 1 mps 596 mmHg 54%
    07:00 +7°C° 0 mm 1 mps 597 mmHg 50%
    08:00 +9°C° 0 mm 1 mps 598 mmHg 46%
    09:00 +11°C° 0 mm 1 mps 599 mmHg 42%
    10:00 +11°C° 0 mm 1 mps 600 mmHg 43%
    11:00 +12°C° 0 mm 2 mps 600 mmHg 45%
    12:00 +13°C° 0 mm 2 mps 600 mmHg 46%
    13:00 +12°C° 0 mm 2 mps 600 mmHg 51%
    14:00 +12°C° 0 mm 2 mps 599 mmHg 56%
    15:00 +12°C° 0 mm 2 mps 599 mmHg 60%
    16:00 +10°C° 0 mm 1 mps 598 mmHg 69%
    17:00 +8°C° 0 mm 1 mps 598 mmHg 77%
    18:00 +6°C° 0 mm 0 mps 597 mmHg 86%
    19:00 +5°C° 0 mm 0 mps 597 mmHg 83%
    20:00 +5°C° 0 mm 0 mps 597 mmHg 80%
    21:00 +6°C° 0 mm 1 mps 597 mmHg 78%
    22:00 +6°C° 0 mm 1 mps 597 mmHg 75%
    23:00 +6°C° 0 mm 1 mps 597 mmHg 73%

    24 October, Thursday

    Time Temperature Precipitation Wind Pressure Humidity
    00:00 +6°C° 0 mm 1 mps 597 mmHg 71%
    01:00 +6°C° 0 mm 1 mps 597 mmHg 68%
    02:00 +5°C° 0 mm 1 mps 597 mmHg 66%
    03:00 +5°C° 0 mm 1 mps 597 mmHg 63%
    04:00 +5°C° 0 mm 1 mps 597 mmHg 60%
    05:00 +5°C° 0 mm 1 mps 597 mmHg 56%
    06:00 +5°C° 0 mm 1 mps 597 mmHg 53%
    07:00 +7°C° 0 mm 1 mps 598 mmHg 48%
    08:00 +9°C° 0 mm 1 mps 599 mmHg 44%
    09:00 +11°C° 0 mm 1 mps 600 mmHg 40%
    10:00 +12°C° 0 mm 1 mps 600 mmHg 42%
    11:00 +12°C° 0 mm 2 mps 600 mmHg 44%
    12:00 +13°C° 0 mm 2 mps 600 mmHg 46%
    13:00 +13°C° 0 mm 2 mps 600 mmHg 52%
    14:00 +12°C° 0 mm 2 mps 599 mmHg 57%
    15:00 +12°C° 0 mm 2 mps 599 mmHg 63%
    16:00 +10°C° 0 mm 1 mps 598 mmHg 70%
    17:00 +9°C° 0 mm 1 mps 598 mmHg 78%
    18:00 +6°C° 0 mm 0 mps 597 mmHg 85%
    19:00 +6°C° 0 mm 0 mps 597 mmHg 83%
    20:00 +6°C° 0 mm 0 mps 597 mmHg 81%
    21:00 +6°C° 0 mm 0 mps 597 mmHg 80%
    22:00 +6°C° 0 mm 1 mps 597 mmHg 78%
    23:00 +6°C° 0 mm 1 mps 597 mmHg 77%
    Show more